Stations météo

Publicité
Carcassonne, France (7635): Température de l'air & dewpoint: 10.08.2017 17:00:00 - 16.08.2017 17:00:00 (CEST)Carcassonne, France (7635): Température de l'air 5cm: 10.08.2017 17:00:00 - 16.08.2017 17:00:00 (CEST)Carcassonne, France (7635): Température de l'air -20cm & Température de l'air -100cm: 10.08.2017 17:00:00 - 16.08.2017 17:00:00 (CEST)Carcassonne, France (7635): Vitesse du vent & gusts: 10.08.2017 17:00:00 - 16.08.2017 17:00:00 (CEST)Carcassonne, France (7635): Direction du vent: 10.08.2017 17:00:00 - 16.08.2017 17:00:00 (CEST)Carcassonne, France (7635): reduced air pressure: 10.08.2017 17:00:00 - 16.08.2017 17:00:00 (CEST)Carcassonne, France (7635): visibility: 10.08.2017 17:00:00 - 16.08.2017 17:00:00 (CEST)Carcassonne, France (7635): Ensoleillement: 10.08.2017 17:00:00 - 16.08.2017 17:00:00 (CEST)Carcassonne, France (7635): Quantités de précipitations: 10.08.2017 17:00:00 - 16.08.2017 17:00:00 (CEST)
Date & Time tt [°C] td [°C] tt 5cm [°C] tt -20cm [°C] tt -100cm [°C] ff [km/h] ff [knt] fx [km/h] fx [knt] dd ppp [hPa] vv [km] sd [min] rr [mm]
16.08.2017 17:00:00 29,4 18,8 32,1 27,6 23,5 25 13 39 21 W 1018,5 20 38 0,0
16.08.2017 16:00:00 29,8 17,9 33,0 27,0 23,5 20 11 40 22 WNW 1018,3 20 60 0,0
16.08.2017 15:00:00 29,8 18,6 32,6 26,4 23,4 20 11 39 21 W 1018,6 20 58 0,0
16.08.2017 14:00:00 28,7 19,1 30,0 26,0 23,4 21 11 34 18 W 1018,9 20 28 0,0
16.08.2017 13:00:00 27,5 19,6 28,4 25,6 23,4 19 11 32 17 W 1019,3 22 26 0,0
16.08.2017 12:00:00 25,7 19,6 27,3 25,3 23,4 17 9 29 16 W 1019,6 22 18 0,0
16.08.2017 11:00:00 26,0 20,3 25,3 25,2 23,4 13 7 24 13 W 1019,6 26 35 0,0
16.08.2017 10:00:00 24,0 19,9 24,4 25,2 23,4 13 7 20 11 W 1019,8 17 47 0,0
16.08.2017 09:00:00 22,5 19,7 21,0 25,3 23,4 10 5 15 8 WNW 1019,8 17 42 0,0
16.08.2017 08:00:00 19,3 17,6 16,7 25,5 23,4 0 0 6 3 N 1020,0 10 41 0,0
16.08.2017 07:00:00 17,9 16,1 16,8 25,7 23,4 0 0 10 5 N 1019,9 18 0 0,0
16.08.2017 06:00:00 18,8 16,9 17,4 25,9 23,4 5 3 9 5 S 1019,6 17 0 0,0
16.08.2017 05:00:00 19,8 17,6 16,9 26,1 23,4 6 4 13 7 W 1019,7 19 0 0,0
16.08.2017 04:00:00 18,9 15,8 17,1 26,4 23,4 6 3 9 5 SW 1020,0 32 0 0,0
16.08.2017 03:00:00 20,6 16,8 17,6 26,6 23,4 7 4 12 6 W 1019,7 38 0 0,0
16.08.2017 02:00:00 19,6 16,1 18,4 26,8 23,4 5 3 18 10 WNW 1020,4 41 0 0,0
16.08.2017 01:00:00 20,1 15,7 19,0 27,1 23,4 5 3 13 7 S 1020,4 51 0 0,0
16.08.2017 00:00:00 20,3 15,9 18,2 27,2 23,3 3 1 10 5 W 1020,6 59 0 0,0
15.08.2017 23:00:00 20,1 14,9 18,1 27,5 23,3 2 1 10 5 SW 1020,1 60 0 0,0
15.08.2017 22:00:00 22,1 15,2 21,1 27,6 23,3 7 4 12 6 ENE 1020,1 60 0 0,0
15.08.2017 21:00:00 23,8 16,8 22,9 27,7 23,3 5 3 16 9 E 1019,5 57 31 0,0
15.08.2017 20:00:00 25,0 16,7 25,6 27,7 23,3 7 4 26 14 ESE 1018,6 60 25 0,0
15.08.2017 19:00:00 26,4 17,2 26,4 27,6 23,3 16 9 28 15 E 1017,9 40 29 0,0
15.08.2017 18:00:00 25,5 17,7 26,7 27,3 23,3 19 10 35 19 E 1017,7 60 15 0,0
15.08.2017 17:00:00 26,3 18,4 28,0 27,0 23,3 15 8 31 17 SE 1018,6 38 47 0,0
15.08.2017 16:00:00 26,6 18,7 28,0 26,6 23,3 21 11 37 20 E 1018,3 60 6 0,0
15.08.2017 15:00:00 27,3 18,3 28,8 26,2 23,3 24 13 39 21 E 1019,0 44 32 0,0
15.08.2017 14:00:00 26,7 18,6 28,5 25,9 23,3 24 13 46 25 E 1018,8 43 15 0,0
15.08.2017 13:00:00 25,3 18,5 25,7 25,8 23,3 33 18 50 27 E 1017,9 47 22 0,0
15.08.2017 12:00:00 24,5 18,2 23,5 25,7 23,3 29 16 47 25 E 1018,4 54 22 0,0
15.08.2017 11:00:00 22,2 17,6 22,5 25,8 23,3 34 18 50 27 E 1019,0 56 0 0,0
15.08.2017 10:00:00 21,8 17,8 21,5 25,9 23,3 24 13 42 23 E 1019,0 48 0 0,0
15.08.2017 09:00:00 20,9 17,9 21,1 26,0 23,3 23 12 39 21 E 1019,4 36 0 0,0
15.08.2017 08:00:00 20,8 18,2 20,7 26,1 23,3 18 10 31 17 E 1019,2 31 0 0,0
15.08.2017 07:00:00 20,6 18,2 20,5 26,3 23,3 18 10 30 16 E 1018,9 28 0 0,0
15.08.2017 06:00:00 20,7 18,3 20,6 26,5 23,2 20 11 29 16 E 1019,0 34 0 0,0
15.08.2017 05:00:00 21,2 18,6 21,2 26,7 23,2 20 11 32 17 E 1019,1 32 0 0,0
15.08.2017 04:00:00 21,4 18,8 21,4 26,9 23,2 15 8 42 23 E 1019,3 30 0 0,0
15.08.2017 03:00:00 21,6 18,8 21,6 27,1 23,2 23 13 45 24 E 1018,2 33 0 0,0
15.08.2017 02:00:00 21,8 18,8 21,8 27,3 23,2 23 13 42 23 E 1018,2 37 0 0,0
15.08.2017 01:00:00 22,0 19,0 22,0 27,5 23,2 25 13 45 25 E 1018,3 37 0 0,0
15.08.2017 00:00:00 22,2 19,0 22,2 27,7 23,2 28 15 47 25 E 1017,6 39 0 0,0
14.08.2017 23:00:00 22,4 19,2 22,5 28,0 23,2 27 15 53 29 E 1017,7 43 0 0,0
14.08.2017 22:00:00 22,7 18,9 22,7 28,2 23,2 31 17 47 26 E 1017,4 50 0 0,0
14.08.2017 21:00:00 23,0 18,7 22,9 28,3 23,2 32 17 54 29 E 1016,7 40 24 0,0
14.08.2017 20:00:00 24,0 18,4 24,9 28,3 23,2 34 18 63 34 E 1016,3 36 60 0,0
14.08.2017 19:00:00 26,0 18,7 27,7 28,1 23,2 39 21 60 32 E 1016,1 23 60 0,0
14.08.2017 18:00:00 27,4 18,1 30,4 27,8 23,2 35 19 60 33 E 1015,8 20 60 0,0
14.08.2017 17:00:00 28,0 17,2 31,4 27,4 23,2 41 22 60 33 E 1015,8 18 60 0,0
14.08.2017 16:00:00 28,9 15,8 32,4 26,8 23,2 37 20 59 32 E 1015,8 19 60 0,0
14.08.2017 15:00:00 29,1 15,6 32,5 26,3 23,1 37 20 58 32 E 1016,0 21 60 0,0
14.08.2017 14:00:00 29,2 16,0 32,5 25,7 23,1 39 21 61 33 E 1016,4 24 60 0,0
14.08.2017 13:00:00 28,6 16,5 31,3 25,3 23,1 36 19 57 31 E 1016,6 28 60 0,0
14.08.2017 12:00:00 26,9 16,2 29,1 25,0 23,1 34 18 52 28 E 1017,0 31 60 0,0
14.08.2017 11:00:00 25,3 15,3 26,6 24,9 23,1 34 18 47 26 E 1017,3 38 60 0,0
14.08.2017 10:00:00 23,8 15,3 24,8 24,9 23,1 29 16 49 26 E 1017,4 45 60 0,0
14.08.2017 09:00:00 22,8 14,4 22,5 25,1 23,1 23 12 40 22 E 1017,5 56 60 0,0
14.08.2017 08:00:00 21,6 14,3 19,5 25,3 23,1 13 7 24 13 ESE 1017,1 52 43 0,0
14.08.2017 07:00:00 20,1 13,5 19,2 25,6 23,1 10 5 28 15 ESE 1016,9 60 0 0,0
14.08.2017 06:00:00 20,0 13,9 15,2 25,9 23,1 16 9 26 14 E 1016,7 60 0 0,0
14.08.2017 05:00:00 17,3 13,6 14,6 26,2 23,1 4 2 12 7 E 1017,1 60 0 0,0
14.08.2017 04:00:00 17,0 13,5 14,6 26,5 23,1 4 2 7 4 SSE 1017,3 60 0 0,0
14.08.2017 03:00:00 16,6 13,3 14,6 26,8 23,1 2 1 4 2 SSW 1017,4 60 0 0,0
14.08.2017 02:00:00 18,1 13,2 15,7 27,2 23,1 2 1 7 4 SSW 1017,3 60 0 0,0
14.08.2017 01:00:00 20,0 13,9 18,3 27,5 23,1 5 3 11 6 S 1017,2 60 0 0,0
14.08.2017 00:00:00 20,2 14,1 17,2 27,8 23,1 6 3 10 6 S 1017,6 60 0 0,0
13.08.2017 23:00:00 21,0 14,4 17,7 28,1 23,1 3 2 8 4 W 1017,6 60 0 0,0
13.08.2017 22:00:00 22,7 14,5 18,5 28,3 23,1 4 2 9 5 W 1017,3 60 0 0,0
13.08.2017 21:00:00 24,7 14,5 22,3 28,4 23,1 8 4 18 10 WNW 1016,8 60 30 0,0
13.08.2017 20:00:00 28,3 14,5 27,2 28,3 23,1 12 7 22 12 WNW 1016,2 60 29 0,0
13.08.2017 19:00:00 29,8 14,0 32,0 28,0 23,1 14 8 33 18 WNW 1016,1 40 60 0,0
13.08.2017 18:00:00 30,4 14,1 33,9 27,4 23,1 16 8 32 17 W 1016,3 35 60 0,0
13.08.2017 17:00:00 31,1 14,3 35,2 26,8 23,1 15 8 28 15 W 1016,5 41 60 0,0
13.08.2017 16:00:00 29,8 14,4 34,0 26,0 23,1 18 10 32 18 W 1017,1 27 57 0,0
13.08.2017 15:00:00 29,1 14,1 32,5 25,2 23,1 17 9 30 16 W 1017,9 27 60 0,0
13.08.2017 14:00:00 28,2 14,4 31,9 24,6 23,1 20 11 32 17 W 1018,5 26 60 0,0
13.08.2017 13:00:00 27,0 14,4 30,0 24,0 23,1 20 11 36 19 W 1019,3 26 60 0,0
13.08.2017 12:00:00 24,8 13,7 28,1 23,6 23,1 18 10 35 19 W 1020,2 27 60 0,0
13.08.2017 11:00:00 23,4 13,6 25,2 23,4 23,1 21 11 35 19 WNW 1020,8 27 60 0,0
13.08.2017 10:00:00 21,7 13,1 22,4 23,4 23,1 21 11 35 19 W 1020,9 29 60 0,0
13.08.2017 09:00:00 19,8 12,8 19,5 23,6 23,1 16 9 30 16 W 1020,9 31 60 0,0
13.08.2017 08:00:00 18,2 12,4 16,4 23,8 23,1 10 6 23 12 W 1020,7 34 24 0,0
13.08.2017 07:00:00 17,0 11,9 15,9 24,1 23,1 13 7 23 13 W 1020,4 60 0 0,0
13.08.2017 06:00:00 17,2 11,9 16,4 24,3 23,1 11 6 23 13 W 1020,4 60 0 0,0
13.08.2017 05:00:00 17,3 11,8 16,6 24,6 23,1 13 7 26 14 W 1020,3 60 0 0,0
13.08.2017 04:00:00 18,1 12,3 17,3 24,8 23,1 12 7 26 14 W 1020,6 60 0 0,0
13.08.2017 03:00:00 18,3 12,3 17,7 25,1 23,1 10 6 19 11 W 1020,8 60 0 0,0
13.08.2017 02:00:00 18,6 12,1 15,9 25,3 23,1 9 5 17 9 W 1021,4 60 0 0,0
13.08.2017 01:00:00 18,3 11,6 16,6 25,7 23,2 5 3 19 10 WNW 1021,8 60 0 0,0
13.08.2017 00:00:00 18,4 11,7 15,8 26,0 23,2 8 4 16 9 W 1021,9 60 0 0,0
12.08.2017 23:00:00 19,5 11,8 17,2 26,2 23,2 9 5 14 8 W 1022,0 60 0 0,0
12.08.2017 22:00:00 19,6 11,4 18,1 26,4 23,2 11 6 23 12 WNW 1021,9 60 0 0,0
12.08.2017 21:00:00 22,1 11,2 21,1 26,5 23,2 13 7 33 18 NW 1021,3 60 34 0,0
12.08.2017 20:00:00 24,2 10,5 24,9 26,5 23,2 21 11 39 21 WNW 1020,9 28 60 0,0
12.08.2017 19:00:00 25,4 8,8 27,5 26,2 23,2 21 11 44 24 WNW 1020,7 21 60 0,0
12.08.2017 18:00:00 26,0 8,0 29,1 25,7 23,2 24 13 45 24 WNW 1020,7 22 60 0,0
12.08.2017 17:00:00 26,0 8,0 29,8 25,0 23,2 24 13 41 22 WNW 1020,9 25 60 0,0
12.08.2017 16:00:00 25,8 8,7 30,4 24,3 23,3 23 13 42 23 WNW 1021,3 31 60 0,0
12.08.2017 15:00:00 25,4 10,0 29,6 23,5 23,3 26 14 42 23 WNW 1021,9 28 60 0,0
12.08.2017 14:00:00 24,8 10,6 28,0 22,8 23,3 24 13 43 23 NW 1022,6 32 60 0,0
12.08.2017 13:00:00 23,3 11,0 26,3 22,2 23,3 23 12 42 23 WNW 1023,1 43 60 0,0
12.08.2017 12:00:00 21,6 11,0 24,5 21,8 23,3 25 14 42 23 WNW 1023,6 31 60 0,0
12.08.2017 11:00:00 20,0 10,4 22,6 21,6 23,3 24 13 38 21 W 1023,8 29 60 0,0
12.08.2017 10:00:00 18,6 11,4 19,0 21,6 23,3 19 10 37 20 WNW 1023,7 26 60 0,0
12.08.2017 09:00:00 16,6 10,9 15,4 21,8 23,4 21 11 35 19 W 1023,9 24 60 0,0
12.08.2017 08:00:00 14,2 11,0 12,0 22,0 23,4 14 8 24 13 W 1023,9 24 45 0,0
12.08.2017 07:00:00 12,7 10,4 11,8 22,2 23,4 10 5 17 9 W 1023,7 38 0 0,0
12.08.2017 06:00:00 13,1 11,0 12,1 22,4 23,4 8 5 19 10 W 1023,5 35 0 0,0
12.08.2017 05:00:00 13,8 11,3 13,1 22,6 23,4 10 5 22 12 W 1023,6 39 0 0,0
12.08.2017 04:00:00 14,6 11,6 14,0 22,8 23,4 13 7 23 13 W 1023,8 48 0 0,0
12.08.2017 03:00:00 14,8 11,4 14,1 23,0 23,4 13 7 19 11 W 1023,8 49 0 0,0
12.08.2017 02:00:00 15,6 11,4 14,6 23,2 23,4 10 5 19 10 W 1024,0 53 0 0,0
12.08.2017 01:00:00 16,4 11,3 14,3 23,4 23,4 11 6 19 10 W 1023,7 59 0 0,0
12.08.2017 00:00:00 17,3 11,3 15,5 23,7 23,5 10 5 19 10 WNW 1023,7 60 0 0,0
11.08.2017 23:00:00 16,8 10,6 15,3 23,8 23,5 9 5 18 10 WNW 1023,6 60 0 0,0
11.08.2017 22:00:00 17,7 10,6 15,6 24,0 23,5 6 4 13 7 WNW 1023,3 60 0 0,0
11.08.2017 21:00:00 19,0 10,8 18,1 24,0 23,5 9 5 32 17 WNW 1022,5 60 3 0,0
11.08.2017 20:00:00 20,8 10,3 20,4 23,9 23,5 18 10 34 19 NW 1021,9 50 56 0,0
11.08.2017 19:00:00 22,5 10,9 22,2 23,7 23,5 24 13 47 25 NW 1021,7 38 45 0,0
11.08.2017 18:00:00 21,9 9,8 22,6 23,4 23,5 27 15 46 25 WNW 1021,7 53 16 0,0
11.08.2017 17:00:00 22,1 9,6 23,1 23,1 23,6 30 16 53 28 WNW 1022,0 41 18 0,0
11.08.2017 16:00:00 22,9 9,7 23,3 22,7 23,6 32 17 54 29 WNW 1022,2 40 41 0,0
11.08.2017 15:00:00 22,3 11,4 21,9 22,4 23,6 29 16 51 28 WNW 1022,3 48 24 0,0
11.08.2017 14:00:00 19,8 12,1 17,2 22,2 23,6 24 13 41 22 WNW 1022,8 56 1 0,0
11.08.2017 13:00:00 20,4 12,6 16,9 22,1 23,6 26 14 45 24 WNW 1022,8 20 13 0,0
11.08.2017 12:00:00 19,5 13,4 17,9 22,0 23,6 26 14 47 26 WNW 1023,2 30 38 0,0
11.08.2017 11:00:00 16,6 12,9 14,9 22,1 23,6 23 13 37 20 WNW 1023,5 31 3 0,0
11.08.2017 10:00:00 15,2 13,2 13,7 22,1 23,6 16 9 28 15 WNW 1023,5 39 0 0,2
11.08.2017 09:00:00 14,5 12,4 13,6 22,3 23,6 14 8 40 22 WNW 1023,3 14 0 0,2
11.08.2017 08:00:00 15,2 11,8 14,4 22,4 23,7 23 13 38 21 WNW 1023,0 49 0 0,0
11.08.2017 07:00:00 15,4 11,4 14,8 22,6 23,7 25 13 40 22 WNW 1022,6 58 0 0,0
11.08.2017 06:00:00 15,1 11,5 14,1 22,8 23,7 23 12 40 21 W 1022,1 57 0 0,0
11.08.2017 05:00:00 14,8 11,8 14,1 23,1 23,8 22 12 39 21 W 1021,8 52 0 0,0
11.08.2017 04:00:00 15,1 12,0 14,5 23,2 23,7 24 13 41 22 W 1021,9 50 0 0,0
11.08.2017 03:00:00 15,6 12,0 15,1 23,5 23,8 24 13 52 28 WNW 1022,7 58 0 0,0
11.08.2017 02:00:00 16,0 12,0 15,5 23,6 23,8 26 14 44 24 W 1022,9 60 0 0,0
11.08.2017 01:00:00 16,6 12,1 16,0 23,9 23,8 26 14 47 25 W 1023,2 60 0 0,0
11.08.2017 00:00:00 16,4 12,0 15,9 24,1 23,8 23 12 38 20 WNW 1023,3 60 0 0,0
10.08.2017 23:00:00 16,9 12,0 16,3 24,3 23,9 19 10 32 18 WNW 1023,1 60 0 0,0
10.08.2017 22:00:00 16,9 11,4 16,3 24,5 23,8 18 10 42 23 WNW 1022,4 60 0 0,0
10.08.2017 21:00:00 17,0 11,5 16,4 24,6 23,9 23 12 44 24 W 1022,2 60 0 0,2
10.08.2017 20:00:00 17,5 12,2 16,0 24,6 23,9 29 16 47 26 W 1022,1 48 0 0,0
10.08.2017 19:00:00 19,6 11,4 19,9 24,4 23,9 34 18 54 29 W 1021,5 39 10 0,0
10.08.2017 18:00:00 20,6 10,7 21,1 24,1 23,9 36 19 57 31 WNW 1020,9 41 43 0,0
10.08.2017 17:00:00 19,5 12,5 20,4 23,8 23,9 30 16 61 33 W 1020,9 51 22 0,0

tt = Température de l'air
td = dewpoint
tt 5cm = Température de l'air 5cm
tt -20cm = Température de l'air -20cm
tt -100cm = Température de l'air -100cm
ff = Vitesse du vent
fx = gusts
dd = Direction du vent
ppp = reduced air pressure
vv = visibility
sd = Ensoleillement
rr = Quantités de précipitations

stations d'obs. à proximité